Flag for Germany Weather past 2 weeks in Frankfurt, Hesse, Germany

Now
68 °F

Sunny.


Feels Like: 68 °F
Forecast: 51 / 74 °F
Wind: 10 mph from Northeast

Location: Frankfurt-M-Flughafen Airport


UV Index: 3 (Moderate)

Visibility: 10 mi


Pressure: 29.95 "Hg

Humidity: 46%

Dew point: 46 °F

Location of FrankfurtLocation

Historic Weather in Frankfurt

°F

Frankfurt temperature yesterday

Maximum temperature yesterday: 72 °F (at 2:50 PM)
Minimum temperature yesterday: 46 °F (at 2:20 AM)
Average temperature yesterday: 59 °F

Past Weeks' High & Low Weather Summary

 TemperatureHumidityPressure
High75 °F (Apr 24, 3:50 PM)100% (Apr 23, 2:20 AM)30.42 "Hg (Apr 23, 2:20 AM)
Low32 °F (Apr 16, 5:20 AM)25% (Apr 17, 5:50 PM)29.59 "Hg (Apr 21, 2:20 PM)
Average54 °F60%30.02 "Hg
* Reported Apr 9 8:20 PM — Apr 24 8:20 PM, Frankfurt, Weather by CustomWeather, © 2014

Note: Actual official high and low records may vary slightly from our data, if they occured in-between our weather recording intervals... More about our weather records

Advertising

Historic Weather Conditions — Data for Previous 24 hours

 ConditionsComfort  
Time TempWeatherWind HumidityBarometerVisibility
8:20 PM
Apr 24
70 °FSunny.10 mph40%29.95 "Hg10 mi
7:50 PM72 °FSunny.10 mph36%29.92 "Hg10 mi
7:20 PM72 °FSunny.10 mph36%29.92 "Hg10 mi
6:50 PM75 °FPassing clouds.5 mph27%29.95 "HgN/A
6:20 PM75 °FSunny.8 mph29%29.95 "Hg10 mi
5:50 PM75 °FSunny.9 mph29%29.95 "Hg10 mi
5:20 PM75 °FScattered clouds.7 mph31%29.95 "HgN/A
4:50 PM73 °FScattered clouds.9 mph33%29.98 "HgN/A
4:20 PM73 °FBroken clouds.7 mph36%29.98 "HgN/A
3:50 PM75 °FPartly sunny.12 mph34%29.98 "HgN/A
3:20 PM73 °FPartly sunny.12 mph36%30.01 "HgN/A
2:50 PM73 °FPartly sunny.12 mph38%30.01 "HgN/A
2:20 PM73 °FScattered clouds.12 mph36%30.04 "HgN/A
1:50 PM73 °FPartly sunny.12 mph36%30.04 "HgN/A
1:20 PM73 °FPartly sunny.9 mph36%30.04 "HgN/A
12:50 PM72 °FPartly sunny.6 mph41%30.07 "HgN/A
12:20 PM72 °FScattered clouds.6 mph44%30.07 "HgN/A
11:50 AM70 °FScattered clouds.6 mph43%30.07 "HgN/A
11:20 AM68 °FScattered clouds.6 mph49%30.09 "HgN/A
10:50 AM66 °FScattered clouds.5 mph52%30.09 "HgN/A
10:20 AM64 °FPassing clouds.6 mph56%30.09 "HgN/A
9:20 AM61 °FSunny.6 mph63%30.09 "Hg10 mi
8:50 AM59 °FSunny.7 mph68%30.09 "Hg10 mi
8:20 AM57 °FSunny.8 mph72%30.09 "Hg10 mi
7:50 AM54 °FSunny.7 mph82%30.09 "Hg10 mi
7:20 AM54 °FSunny.7 mph82%30.09 "Hg10 mi
6:50 AM52 °FClear.5 mph82%30.09 "Hg10 mi
6:20 AM52 °FClear.7 mph82%30.09 "Hg10 mi
5:50 AM52 °FClear.7 mph82%30.09 "Hg10 mi
5:20 AM54 °FClear.6 mph77%30.09 "Hg10 mi
4:50 AM54 °FClear.6 mph77%30.09 "Hg10 mi
4:20 AM54 °FClear.6 mph77%30.09 "Hg10 mi
3:50 AM54 °FClear.5 mph77%30.09 "Hg10 mi
3:20 AM54 °FClear.6 mph77%30.09 "Hg10 mi
2:50 AM54 °FClear.7 mph77%30.09 "Hg10 mi
2:20 AM55 °FClear.7 mph72%30.09 "Hg10 mi
1:50 AM55 °FClear.7 mph72%30.09 "Hg10 mi
1:20 AM57 °FClear.7 mph67%30.09 "Hg10 mi
12:50 AM57 °FClear.9 mph67%30.09 "Hg10 mi
12:20 AM57 °FClear.8 mph67%30.09 "Hg10 mi
11:50 PM
Apr 23
57 °FClear.9 mph67%30.09 "Hg10 mi
11:20 PM57 °FClear.12 mph67%30.09 "Hg10 mi
10:50 PM59 °FClear.12 mph63%30.09 "Hg10 mi
10:20 PM59 °FClear.7 mph63%30.09 "Hg10 mi
9:50 PM61 °FClear.10 mph59%30.09 "Hg10 mi
9:20 PM61 °FSunny.13 mph55%30.09 "Hg10 mi
Weather by CustomWeather, © 2014

See weather overview